Stations météo

réclame
Mon MeteoGroup
Catania/Sigonella, Italie (16459): Température de l'air & dewpoint: 09.11.2018 22:00:00 - 15.11.2018 22:00:00 (CET)Catania/Sigonella, Italie (16459): Vitesse du vent: 09.11.2018 22:00:00 - 15.11.2018 22:00:00 (CET)Catania/Sigonella, Italie (16459): Direction du vent: 09.11.2018 22:00:00 - 15.11.2018 22:00:00 (CET)Catania/Sigonella, Italie (16459): reduced air pressure: 09.11.2018 22:00:00 - 15.11.2018 22:00:00 (CET)Catania/Sigonella, Italie (16459): visibility: 09.11.2018 22:00:00 - 15.11.2018 22:00:00 (CET)
Date & Time tt [°C] td [°C] ff [km/h] ff [knt] dd ppp [hPa] vv [km]
15.11.2018 22:00:00 14,0 14,0 8 4 WSW 1020,5 10
15.11.2018 21:00:00 15,0 15,0 - - - - 10
15.11.2018 20:00:00 15,0 15,0 - - - - 10
15.11.2018 19:00:00 17,0 17,0 5 3 ESE 1020,5 10
15.11.2018 18:00:00 18,0 18,0 - - - - 10
15.11.2018 17:00:00 19,0 17,0 - - - - 10
15.11.2018 16:00:00 20,6 15,8 4 2 SSW 1020,9 10
15.11.2018 15:00:00 21,0 15,0 - - - - 8
15.11.2018 14:00:00 22,0 14,0 - - - - 8
15.11.2018 13:00:00 22,0 14,9 4 2 WNW 1021,9 8
15.11.2018 12:00:00 21,0 16,0 - - - - 8
15.11.2018 11:00:00 20,0 17,0 - - - - 8
15.11.2018 10:00:00 17,8 17,8 5 3 W 1023,5 8
15.11.2018 09:00:00 15,0 15,0 - - - - 8
15.11.2018 08:00:00 12,0 12,0 - - - - 8
15.11.2018 07:00:00 10,6 10,6 9 5 WNW 1023,3 8
15.11.2018 06:00:00 11,0 11,0 - - - - 10
15.11.2018 05:00:00 12,0 12,0 - - - - 10
15.11.2018 04:00:00 11,6 11,6 8 4 W 1023,6 10
15.11.2018 03:00:00 12,0 12,0 - - - - 10
15.11.2018 02:00:00 11,0 11,0 - - - - 10
15.11.2018 01:00:00 11,6 11,6 9 5 W 1024,0 10
15.11.2018 00:00:00 12,0 12,0 - - - - 10
14.11.2018 23:00:00 12,0 12,0 - - - - 10
14.11.2018 22:00:00 13,6 13,6 9 5 WNW 1023,9 10
14.11.2018 21:00:00 14,0 14,0 - - - - 10
14.11.2018 20:00:00 15,0 15,0 - - - - 10
14.11.2018 19:00:00 16,0 16,0 4 2 ESE 1024,1 10
14.11.2018 18:00:00 17,0 16,0 - - - - 10
14.11.2018 17:00:00 19,0 17,0 - - - - 10
14.11.2018 16:00:00 22,8 14,6 4 2 ESE 1023,9 15
14.11.2018 15:00:00 24,0 15,0 - - - - 10
14.11.2018 14:00:00 24,0 14,0 - - - - 10
14.11.2018 13:00:00 23,0 13,8 5 3 W 1025,0 15
14.11.2018 12:00:00 22,0 15,0 - - - - 10
14.11.2018 11:00:00 21,0 15,0 - - - - 10
14.11.2018 10:00:00 18,0 15,4 11 6 W 1026,8 15
14.11.2018 09:00:00 15,0 13,0 - - - - 10
14.11.2018 08:00:00 12,0 12,0 - - - - 10
14.11.2018 07:00:00 10,0 10,0 11 6 W 1026,6 10
14.11.2018 06:00:00 10,0 10,0 - - - - 10
14.11.2018 05:00:00 11,0 11,0 - - - - 10
14.11.2018 04:00:00 11,0 11,0 9 5 WNW 1026,8 10
14.11.2018 03:00:00 12,0 12,0 - - - - 10
14.11.2018 02:00:00 12,0 12,0 - - - - 10
14.11.2018 01:00:00 13,0 13,0 9 5 WNW 1027,1 10
14.11.2018 00:00:00 14,0 14,0 - - - - 10
13.11.2018 23:00:00 14,0 14,0 - - - - 10
13.11.2018 22:00:00 14,2 14,2 9 5 W 1027,6 10
13.11.2018 21:00:00 15,0 15,0 - - - - 10
13.11.2018 20:00:00 16,0 16,0 - - - - 10
13.11.2018 19:00:00 16,2 16,2 2 1 W 1027,2 10
13.11.2018 18:00:00 19,0 18,0 - - - - 10
13.11.2018 17:00:00 19,0 17,0 - - - - 10
13.11.2018 16:00:00 21,0 16,0 11 6 E 1026,4 10
13.11.2018 15:00:00 23,0 15,0 - - - - 10
13.11.2018 14:00:00 23,0 19,0 - - - - 8
13.11.2018 13:00:00 23,8 19,3 0 0 N 1027,6 8
13.11.2018 12:00:00 23,0 20,0 - - - - 8
13.11.2018 11:00:00 22,0 22,0 - - - - 7
13.11.2018 10:00:00 19,6 19,6 8 4 WSW 1028,4 5
13.11.2018 09:00:00 16,0 16,0 - - - - 5
13.11.2018 08:00:00 14,0 14,0 - - - - 5
13.11.2018 07:00:00 11,4 11,4 8 4 W 1027,7 5
13.11.2018 06:00:00 12,0 12,0 - - - - 7
13.11.2018 05:00:00 12,0 12,0 - - - - 7
13.11.2018 04:00:00 12,2 12,2 11 6 W 1027,4 5
13.11.2018 03:00:00 13,0 13,0 - - - - 7
13.11.2018 02:00:00 13,0 13,0 - - - - 8
13.11.2018 01:00:00 14,2 14,2 9 5 WSW 1027,2 8
13.11.2018 00:00:00 14,0 14,0 - - - - 8
12.11.2018 23:00:00 14,0 14,0 - - - - 8
12.11.2018 22:00:00 14,0 14,0 8 4 WSW 1027,0 8
12.11.2018 21:00:00 15,0 15,0 - - - - 9
12.11.2018 20:00:00 16,0 16,0 - - - - 10
12.11.2018 19:00:00 17,2 17,2 8 4 WSW 1026,5 10
12.11.2018 18:00:00 18,0 18,0 - - - - 10
12.11.2018 17:00:00 19,0 19,0 - - - - 8
12.11.2018 16:00:00 20,0 20,0 8 4 NE 1026,0 8
12.11.2018 15:00:00 20,0 20,0 - - - - 7
12.11.2018 14:00:00 19,0 19,0 - - - - 7
12.11.2018 13:00:00 18,6 18,6 0 0 N 1026,6 7
12.11.2018 12:00:00 16,0 16,0 - - - - 6
12.11.2018 11:00:00 16,0 16,0 - - - - 5
12.11.2018 10:00:00 15,8 15,8 9 5 W 1026,1 5
12.11.2018 09:00:00 15,0 15,0 - - - - 5
12.11.2018 08:00:00 15,0 15,0 - - - - 8
12.11.2018 07:00:00 14,4 14,4 11 6 WNW 1025,0 8
12.11.2018 06:00:00 14,0 14,0 - - - - 8
12.11.2018 05:00:00 14,0 14,0 - - - - 10
12.11.2018 04:00:00 14,0 14,0 9 5 WSW 1024,0 10
12.11.2018 03:00:00 14,0 14,0 - - - - 8
12.11.2018 02:00:00 14,0 14,0 - - - - 10
12.11.2018 01:00:00 14,4 14,4 8 4 WSW 1023,6 10
12.11.2018 00:00:00 15,0 15,0 - - - - 10
11.11.2018 23:00:00 16,0 16,0 - - - - 10
11.11.2018 22:00:00 17,0 17,0 5 3 NE 1023,3 12
11.11.2018 21:00:00 17,0 17,0 - - - - 10
11.11.2018 20:00:00 18,0 18,0 - - - - 10
11.11.2018 19:00:00 18,8 18,8 9 5 E 1022,1 13
11.11.2018 18:00:00 20,0 20,0 - - - - 10
11.11.2018 17:00:00 20,0 20,0 - - - - 10
11.11.2018 16:00:00 21,6 21,6 24 13 ENE 1020,6 13
11.11.2018 15:00:00 22,0 22,0 - - - - 10
11.11.2018 14:00:00 22,0 22,0 - - - - 10
11.11.2018 13:00:00 22,0 20,8 28 15 ENE 1020,0 15
11.11.2018 12:00:00 22,0 20,0 - - - - 10
11.11.2018 11:00:00 21,0 21,0 - - - - 10
11.11.2018 10:00:00 19,0 19,0 18 10 NE 1019,5 15
11.11.2018 09:00:00 15,0 15,0 - - - - 10
11.11.2018 08:00:00 13,0 13,0 - - - - 10
11.11.2018 07:00:00 13,0 13,0 4 2 SW 1018,1 10
11.11.2018 06:00:00 13,0 13,0 - - - - 10
11.11.2018 05:00:00 13,0 13,0 - - - - 10
11.11.2018 04:00:00 13,4 13,4 9 5 W 1016,9 10
11.11.2018 03:00:00 13,0 13,0 - - - - 10
11.11.2018 02:00:00 13,0 13,0 - - - - 10
11.11.2018 01:00:00 14,0 14,0 5 3 W 1016,5 10
11.11.2018 00:00:00 14,0 14,0 - - - - 10
10.11.2018 23:00:00 14,0 14,0 - - - - 10
10.11.2018 22:00:00 14,4 14,4 9 5 S 1015,9 10
10.11.2018 21:00:00 15,0 15,0 9 5 S - 10
10.11.2018 20:00:00 15,0 15,0 9 5 S - 9
10.11.2018 19:00:00 15,2 15,2 8 4 NE 1015,4 9
10.11.2018 18:00:00 16,0 16,0 4 2 NNW - 8
10.11.2018 17:00:00 16,0 16,0 8 4 NE - 2,0
10.11.2018 16:00:00 17,2 17,2 29 16 SSW 1014,5 1,0
10.11.2018 15:00:00 20,0 20,0 21 11 ENE - 5
10.11.2018 14:00:00 20,0 19,0 16 9 ENE - 9
10.11.2018 13:00:00 20,0 17,6 18 10 E 1015,5 9
10.11.2018 12:00:00 20,0 20,0 11 6 E - 9
10.11.2018 11:00:00 20,0 19,0 4 2 ESE - 8
10.11.2018 10:00:00 18,0 18,0 5 3 WSW 1017,5 8
10.11.2018 09:00:00 15,0 15,0 8 4 WSW - 8
10.11.2018 08:00:00 13,0 13,0 9 5 W - 8
10.11.2018 07:00:00 11,2 11,2 9 5 W 1017,4 8
10.11.2018 06:00:00 11,0 11,0 9 5 WSW - 10
10.11.2018 05:00:00 11,0 11,0 5 3 WSW - 10
10.11.2018 04:00:00 12,0 12,0 9 5 W - 10
10.11.2018 03:00:00 12,0 12,0 9 5 WNW - 10
10.11.2018 02:00:00 12,0 12,0 9 5 WSW - 10
10.11.2018 01:00:00 13,0 13,0 9 5 WSW - 10
10.11.2018 00:00:00 14,0 14,0 9 5 W - 10
09.11.2018 23:00:00 14,0 14,0 9 5 W - 10
09.11.2018 22:00:00 14,0 14,0 9 5 W - 10

tt = Température de l'air
td = dewpoint
ff = Vitesse du vent
dd = Direction du vent
ppp = reduced air pressure
vv = visibility

stations d'obs. à proximité